Santa Fe, NM

9:40 AM MDT on May 22, 2017 (GMT -0600)
Santa Fe Municipal

Weather History for KSAF - April, 2013

Change the Weather History Date:

Saturday, April 13, 2013

  Actual Average Record
Temperature  
Mean Temperature 54 °F -  
Max Temperature 71 °F 0 °F 81 °F (2006)
Min Temperature 37 °F - 21 °F (1997)
Degree Days  
Heating Degree Days 12    
Growing Degree Days 4 (Base 50)    
Moisture  
Dew Point 15 °F    
Average Humidity 25    
Maximum Humidity 47    
Minimum Humidity 10    
Precipitation  
Precipitation 0.00 in - - ()
Sea Level Pressure  
Sea Level Pressure 29.66 in    
Wind  
Wind Speed 8 mph (West)    
Max Wind Speed 24 mph    
Max Gust Speed 37 mph    
Visibility 10 miles    
Events      
Averages and records for this station are not official NWS values.
T = Trace of Precipitation, MM = Missing Value Source: NWS Daily Summary

Daily Weather History Graph

Daily Weather History Graph

Search for Another Location

Airport or City:

Trip Planner

Search our weather history database for the weather conditions in past years. The results will help you decide how hot, cold, wet, or windy it might be!

Date:

Astronomy

Apr. 13, 2013 Rise Set
Actual Time 6:33 AM MDT 7:36 PM MDT
Civil Twilight 6:07 AM MDT 8:02 PM MDT
Nautical Twilight 5:36 AM MDT 8:33 PM MDT
Astronomical Twilight 5:04 AM MDT 9:05 PM MDT
Moon 8:32 AM MDT (4/13) 10:56 PM MDT (4/13)
Length of Visible Light 13h 54m
Length of Day
13h 02m
Waxing Crescent, 11% of the Moon is Illuminated
Apr 13
Waxing Crescent
Apr 18
First Quarter
Apr 25
Full
May 2
Last Quarter
May 9
New

Hourly Weather History & Observations

Time (MDT) Temp. Windchill Dew Point Humidity Pressure Visibility Wind Dir Wind Speed Gust Speed Precip Events Conditions
12:53 AM 46.0 °F - 16.0 °F 30% 29.78 in 10.0 mi Calm Calm - N/A   Mostly Cloudy
1:53 AM 39.0 °F - 16.0 °F 39% 29.80 in 10.0 mi Calm Calm - N/A   Clear
2:53 AM 42.1 °F 37.1 °F 17.1 °F 37% 29.78 in 10.0 mi NNE 8.1 mph - N/A   Clear
3:53 AM 39.0 °F 33.4 °F 17.1 °F 41% 29.77 in 10.0 mi NNE 8.1 mph - N/A   Clear
4:53 AM 37.9 °F 32.1 °F 18.0 °F 45% 29.76 in 10.0 mi North 8.1 mph - N/A   Clear
5:53 AM 37.0 °F 30.4 °F 18.0 °F 46% 29.77 in 10.0 mi NNE 9.2 mph - N/A   Clear
6:53 AM 37.9 °F 32.1 °F 19.0 °F 47% 29.79 in 10.0 mi NE 8.1 mph - N/A   Clear
7:53 AM 44.1 °F 40.1 °F 21.0 °F 40% 29.81 in 10.0 mi North 6.9 mph - N/A   Clear
8:53 AM 48.9 °F - 21.9 °F 35% 29.80 in 10.0 mi Calm Calm - N/A   Clear
9:53 AM 55.0 °F - 23.0 °F 29% 29.76 in 10.0 mi South 6.9 mph - N/A   Clear
10:53 AM 60.1 °F - 21.9 °F 23% 29.72 in 10.0 mi SW 11.5 mph - N/A   Clear
11:53 AM 64.0 °F - 18.0 °F 17% 29.70 in 10.0 mi WSW 15.0 mph 21.9 mph N/A   Clear
12:53 PM 66.0 °F - 12.9 °F 13% 29.65 in 10.0 mi West 13.8 mph 27.6 mph N/A   Clear
1:53 PM 68.0 °F - 10.9 °F 11% 29.63 in 10.0 mi WSW 18.4 mph 28.8 mph N/A   Clear
2:53 PM 70.0 °F - 12.9 °F 11% 29.59 in 10.0 mi WSW 24.2 mph 35.7 mph N/A   Clear
3:53 PM 70.0 °F - 10.9 °F 10% 29.56 in 10.0 mi West 21.9 mph 36.8 mph N/A   Clear
4:53 PM 68.0 °F - 10.9 °F 11% 29.55 in 10.0 mi WSW 20.7 mph 27.6 mph N/A   Partly Cloudy
6:53 PM 66.9 °F - 7.0 °F 10% 29.52 in 10.0 mi West 17.3 mph 27.6 mph N/A   Clear
7:53 PM 62.1 °F - 9.0 °F 12% 29.52 in 10.0 mi West 15.0 mph 20.7 mph N/A   Clear
8:53 PM 57.9 °F - 8.1 °F 14% 29.52 in 10.0 mi West 8.1 mph - N/A   Clear
9:53 PM 55.0 °F - 10.0 °F 17% 29.53 in 10.0 mi West 6.9 mph - N/A   Clear
10:53 PM 55.0 °F - 12.9 °F 19% 29.48 in 10.0 mi West 11.5 mph - N/A   Clear
11:53 PM 55.0 °F - 18.0 °F 23% 29.47 in 10.0 mi West 12.7 mph - N/A   Clear